| time (UTC) | temp F | wind direction | speed MPH | gust MPH | rain 1hr in | rain 24hr in | rain mn in | humidity % | barometer mb |
| 20260506170048 | 52 | 259 | 1.0 | 5.0 | 0.06 | 0.43 | 0.28 | 91 | 1011.8 |
| 20260506164538 | 52 | 239 | 3.0 | 4.0 | 0.06 | 0.42 | 0.27 | 90 | 1011.8 |
| 20260506163056 | 52 | 245 | 2.0 | 4.0 | 0.06 | 0.40 | 0.25 | 90 | 1011.7 |
| 20260506161536 | 53 | 244 | 1.0 | 5.0 | 0.04 | 0.38 | 0.23 | 90 | 1011.7 |
| 20260506160036 | 52 | 254 | 1.0 | 6.0 | 0.04 | 0.37 | 0.22 | 90 | 1011.6 |
| 20260506154541 | 52 | 266 | 0.0 | 4.0 | 0.02 | 0.35 | 0.20 | 91 | 1011.5 |
| 20260506153036 | 53 | 269 | 0.0 | 5.0 | 0.02 | 0.34 | 0.19 | 90 | 1011.4 |
| 20260506151532 | 53 | 84 | 0.0 | 4.0 | 0.02 | 0.33 | 0.18 | 90 | 1011.3 |
| 20260506150031 | 52 | 243 | 1.0 | 3.0 | 0.02 | 0.33 | 0.18 | 90 | 1011.2 |
| 20260506144530 | 52 | 237 | 2.0 | 7.0 | 0.02 | 0.37 | 0.18 | 89 | 1011.2 |
| 20260506143040 | 52 | 261 | 2.0 | 7.0 | 0.03 | 0.36 | 0.17 | 89 | 1011.3 |
| 20260506141534 | 52 | 248 | 1.0 | 6.0 | 0.03 | 0.35 | 0.17 | 89 | 1011.3 |
| 20260506140029 | 52 | 238 | 3.0 | 8.0 | 0.04 | 0.35 | 0.17 | 88 | 1011.3 |
| 20260506134528 | 52 | 234 | 4.0 | 7.0 | 0.04 | 0.42 | 0.16 | 89 | 1011.1 |
| 20260506133028 | 53 | 251 | 3.0 | 8.0 | 0.03 | 0.40 | 0.14 | 91 | 1011.0 |
| 20260506131529 | 53 | 226 | 3.0 | 10.0 | 0.02 | 0.39 | 0.13 | 90 | 1011.1 |
| 20260506130027 | 53 | 287 | 1.0 | 8.0 | 0.02 | 0.39 | 0.13 | 91 | 1011.0 |
| 20260506124525 | 53 | 233 | 2.0 | 7.0 | 0.02 | 0.38 | 0.12 | 91 | 1010.8 |
| 20260506123026 | 54 | 240 | 1.0 | 8.0 | 0.06 | 0.37 | 0.11 | 91 | 1010.6 |
| 20260506121523 | 54 | 240 | 2.0 | 8.0 | 0.08 | 0.37 | 0.11 | 92 | 1010.4 |
| 20260506120026 | 54 | 244 | 3.0 | 13.0 | 0.09 | 0.36 | 0.10 | 91 | 1010.1 |
| 20260506114529 | 55 | 255 | 1.0 | 4.0 | 0.08 | 0.35 | 0.09 | 93 | 1010.1 |
| 20260506113023 | 55 | 247 | 1.0 | 7.0 | 0.06 | 0.31 | 0.06 | 92 | 1010.1 |
| 20260506111520 | 56 | 256 | 2.0 | 5.0 | 0.03 | 0.28 | 0.03 | 90 | 1010.0 |
| 20260506110019 | 56 | 269 | 3.0 | 5.0 | 0.02 | 0.28 | 0.02 | 89 | 1009.9 |
| 20260506104518 | 56 | 230 | 1.0 | 4.0 | 0.01 | 0.27 | 0.01 | 88 | 1009.9 |
| 20260506103018 | 57 | 242 | 1.0 | 5.0 | 0.00 | 0.26 | 0.00 | 85 | 1009.7 |
| 20260506101518 | 57 | 244 | 1.0 | 4.0 | 0.00 | 0.26 | 0.00 | 83 | 1009.6 |
| 20260506100017 | 57 | 250 | 1.0 | 4.0 | 0.00 | 0.26 | 0.00 | 82 | 1009.4 |
| 20260506094515 | 57 | 231 | 0.0 | 6.0 | 0.00 | 0.26 | 0.00 | 84 | 1009.4 |
| 20260506093016 | 57 | 246 | 2.0 | 5.0 | 0.00 | 0.26 | 0.00 | 83 | 1009.4 |
| 20260506091515 | 57 | 243 | 3.0 | 7.0 | 0.00 | 0.26 | 0.00 | 82 | 1009.3 |
| 20260506090016 | 57 | 237 | 2.0 | 6.0 | 0.00 | 0.26 | 0.00 | 82 | 1009.3 |
| 20260506084513 | 57 | 236 | 2.0 | 8.0 | 0.00 | 0.27 | 0.00 | 81 | 1009.2 |
| 20260506083013 | 58 | 249 | 2.0 | 7.0 | 0.00 | 0.27 | 0.00 | 80 | 1009.0 |
| 20260506081512 | 58 | 237 | 2.0 | 8.0 | 0.00 | 0.27 | 0.00 | 80 | 1008.9 |
| 20260506073006 | 56 | 247 | 1.0 | 5.0 | 0.00 | 0.27 | 0.00 | 83 | 1009.1 |
| 20260506071505 | 55 | 260 | 1.0 | 6.0 | 0.00 | 0.27 | 0.00 | 85 | 1009.0 |
| 20260506061559 | 55 | 252 | 1.0 | 2.0 | 0.00 | 0.27 | 0.00 | 84 | 1009.2 |
| 20260506044552 | 51 | 257 | 0.0 | 0.0 | 0.00 | 0.27 | 0.00 | 91 | 1009.3 |
| 20260506043047 | 52 | 257 | 0.0 | 1.0 | 0.00 | 0.27 | 0.00 | 90 | 1009.4 |
| 20260506041549 | 52 | 257 | 0.0 | 1.0 | 0.00 | 0.27 | 0.00 | 87 | 1009.4 |
| 20260506040058 | 53 | 255 | 0.0 | 1.0 | 0.00 | 0.27 | 0.00 | 88 | 1009.5 |
| 20260506034553 | 53 | 249 | 0.0 | 2.0 | 0.00 | 0.27 | 0.00 | 87 | 1009.6 |
| 20260506033044 | 53 | 246 | 0.0 | 3.0 | 0.00 | 0.27 | 0.00 | 87 | 1009.7 |
| 20260506031555 | 53 | 256 | 0.0 | 3.0 | 0.00 | 0.27 | 0.00 | 86 | 1009.9 |
| 20260506030041 | 53 | 250 | 0.0 | 2.0 | 0.00 | 0.27 | 0.00 | 87 | 1009.8 |
| 20260506024541 | 53 | 240 | 0.0 | 2.0 | 0.00 | 0.27 | 0.00 | 89 | 1009.9 |
| 20260506023040 | 52 | 252 | 0.0 | 2.0 | 0.00 | 0.27 | 0.00 | 92 | 1009.9 |
| 20260506021539 | 52 | 257 | 0.0 | 1.0 | 0.00 | 0.27 | 0.00 | 93 | 1009.9 |
| 20260506020039 | 52 | 251 | 0.0 | 1.0 | 0.00 | 0.27 | 0.00 | 93 | 1010.1 |
| 20260506014536 | 53 | 250 | 0.0 | 0.0 | 0.00 | 0.27 | 0.00 | 93 | 1010.2 |
| 20260506013034 | 53 | 252 | 0.0 | 1.0 | 0.00 | 0.27 | 0.00 | 92 | 1010.4 |
| 20260506011633 | 53 | 252 | 0.0 | 1.0 | 0.00 | 0.27 | 0.00 | 93 | 1010.6 |
| 20260506010034 | 52 | 246 | 0.0 | 1.0 | 0.00 | 0.27 | 0.00 | 93 | 1010.7 |
| 20260506004531 | 52 | 248 | 0.0 | 1.0 | 0.00 | 0.27 | 0.00 | 93 | 1010.5 |
| 20260506003032 | 52 | 258 | 0.0 | 1.0 | 0.00 | 0.27 | 0.00 | 93 | 1010.6 |
| 20260506001529 | 52 | 262 | 0.0 | 1.0 | 0.00 | 0.27 | 0.00 | 94 | 1010.8 |
| 20260506000027 | 52 | 259 | 0.0 | 0.0 | 0.00 | 0.27 | 0.00 | 93 | 1010.9 |
| 20260505234525 | 52 | 259 | 0.0 | 0.0 | 0.00 | 0.27 | 0.00 | 93 | 1011.1 |
| 20260505233024 | 53 | 259 | 0.0 | 0.0 | 0.00 | 0.27 | 0.00 | 93 | 1011.1 |
| 20260505231529 | 53 | 259 | 0.0 | 0.0 | 0.00 | 0.27 | 0.00 | 93 | 1011.1 |
| 20260505230027 | 53 | 257 | 0.0 | 0.0 | 0.00 | 0.27 | 0.00 | 92 | 1011.3 |
| 20260505224520 | 53 | 242 | 0.0 | 0.0 | 0.00 | 0.27 | 0.00 | 92 | 1011.3 |
| 20260505223018 | 53 | 243 | 0.0 | 0.0 | 0.00 | 0.27 | 0.00 | 91 | 1011.3 |
| 20260505221516 | 54 | 242 | 0.0 | 1.0 | 0.00 | 0.27 | 0.00 | 89 | 1011.2 |
| 20260505220013 | 54 | 252 | 0.0 | 2.0 | 0.00 | 0.27 | 0.00 | 87 | 1011.2 |
| 20260505214513 | 55 | 123 | 0.0 | 4.0 | 0.00 | 0.27 | 0.27 | 86 | 1011.4 |
| 20260505213012 | 55 | 256 | 0.0 | 3.0 | 0.00 | 0.27 | 0.27 | 86 | 1011.5 |
| 20260505211512 | 55 | 78 | 0.0 | 4.0 | 0.00 | 0.27 | 0.27 | 87 | 1011.5 |
| 20260505210010 | 55 | 94 | 1.0 | 5.0 | 0.00 | 0.27 | 0.27 | 88 | 1011.5 |
| 20260505204510 | 54 | 245 | 0.0 | 3.0 | 0.00 | 0.27 | 0.27 | 91 | 1011.5 |
| 20260505203009 | 55 | 257 | 0.0 | 0.0 | 0.00 | 0.27 | 0.27 | 89 | 1011.6 |
| 20260505201510 | 55 | 251 | 0.0 | 2.0 | 0.00 | 0.27 | 0.27 | 88 | 1011.5 |
| 20260505200015 | 56 | 246 | 0.0 | 2.0 | 0.00 | 0.27 | 0.27 | 88 | 1011.3 |
| 20260505194509 | 56 | 250 | 0.0 | 3.0 | 0.00 | 0.27 | 0.27 | 88 | 1011.2 |
| 20260505193008 | 56 | 258 | 0.0 | 2.0 | 0.00 | 0.27 | 0.27 | 88 | 1011.1 |
| 20260505191507 | 55 | 262 | 0.0 | 3.0 | 0.00 | 0.27 | 0.27 | 90 | 1010.9 |
| 20260505190006 | 55 | 72 | 0.0 | 2.0 | 0.00 | 0.27 | 0.27 | 90 | 1010.9 |
| 20260505184505 | 56 | 82 | 0.0 | 2.0 | 0.01 | 0.27 | 0.27 | 89 | 1010.8 |
| 20260505183005 | 56 | 248 | 1.0 | 2.0 | 0.02 | 0.27 | 0.27 | 88 | 1010.8 |
| 20260505181504 | 56 | 91 | 0.0 | 4.0 | 0.13 | 0.27 | 0.27 | 88 | 1010.5 |
| 20260505180008 | 57 | 139 | 0.0 | 4.0 | 0.15 | 0.27 | 0.27 | 88 | 1010.6 |
| 20260505174503 | 58 | 245 | 3.0 | 10.0 | 0.14 | 0.27 | 0.26 | 88 | 1010.6 |
| 20260505173003 | 59 | 246 | 1.0 | 5.0 | 0.13 | 0.25 | 0.24 | 90 | 1010.6 |
| 20260505171505 | 61 | 248 | 1.0 | 3.0 | 0.02 | 0.14 | 0.13 | 85 | 1010.5 |